Regional Weather Roundup
Issued by NWS

Home | Current Version | Previous Version | Graphics & Text | Print | Product List | Glossary On
Versions: 1 2 3 4 5 6 7 8 9 10 11 12 13 14 15 16 17 18 19 20 21 22 23 24 25 26 27 28 29 30 31 32 33 34 35 36 37 38 39 40 41 42 43 44 45 46 47 48 49 50
000
ASUS43 KMPX 192110
RWRMN
WEATHER ROUNDUP FOR MINNESOTA
NATIONAL WEATHER SERVICE TWIN CITIES/CHANHASSEN MN
400 PM CDT SAT APR 19 2014


NOTE: "FAIR" INDICATES FEW OR NO CLOUDS BELOW 12,000 FEET WITH NO
SIGNIFICANT WEATHER AND/OR OBSTRUCTIONS TO VISIBILITY. N/A MEANS
CURRENT SKY AND/OR WEATHER CONDITIONS ARE NOT AVAILABLE.

MNZ060>063-068>070-192200-
   Twin Cities Metro

CITY           SKY/WX    TMP DP  RH WIND       PRES   REMARKS
TWIN CITIES    CLOUDY    67  44  43 S16       29.99F
ST PAUL        CLOUDY    65  43  44 S18       30.00F
CRYSTAL        CLOUDY    65  44  46 SE6       29.97F
EDEN PRAIRIE   LGT RAIN  66  46  48 S10       29.97S
LAKEVILLE      CLOUDY    64  45  48 S14G20    29.99S
SOUTH ST PAUL  CLOUDY    68  43  40 S15G21    30.00S
LAKE ELMO      CLOUDY    63  43  48 S15G23    30.02F
$$
MNZ001>005-007-008-013>017-022>024-027-028-192200-
   Northwest Minnesota

CITY           SKY/WX    TMP DP  RH WIND       PRES   REMARKS
BEMIDJI        PTSUNNY   63  31  29 SW17G29   29.88R
HALLOCK        CLOUDY    55  43  62 W23G31    29.82R
ROSEAU         SUNNY     59  39  47 W20G28    29.80S
WARROAD        SUNNY     57  41  54 SW23G32   29.80R
THIEF RVR FALL SUNNY     59  37  44 W20G26    29.86S
CROOKSTON      SUNNY     63  39  42 W17G28    29.87R
FOSSTON        MOSUNNY   63  30  29 W17G29    29.88R
DETROIT LAKES  PTSUNNY   63  28  27 W14G21    29.94R
MOORHEAD       MOSUNNY   66  21  18 W12G21    29.91S
PARK RAPIDS    PTSUNNY   66  31  27 W20G29    29.90R
$$
MNZ006-009>011-018-025>026-192200-
   North Central Minnesota

CITY           SKY/WX    TMP DP  RH WIND       PRES   REMARKS
BAUDETTE       MOSUNNY   59  36  42 SW20G31   29.80R
FLAG ISLAND    PTSUNNY   52  34  50 SW30G36   29.75R
INTL FALLS     PTSUNNY   55  38  52 S13G22    29.83F
WASKISH        MOSUNNY   55  36  47 SW15      29.85R
BIG FORK       PTSUNNY   61  43  51 S10       29.87F
LONGVILLE      MOSUNNY   63  37  39 SW8G17    29.90S
GRAND RAPIDS   MOSUNNY   57  39  51 S15G22    29.92S
CRANE LAKE     MOSUNNY   43  39  87 S10G18    29.93F
ORR            PTSUNNY   50  34  53 S14       29.88F
COOK           MOSUNNY   46  34  61 SE10G17   29.92F
$$
MNZ012-019>021-037-192200-
   Northeast Minnesota

CITY           SKY/WX    TMP DP  RH WIND       PRES   REMARKS
DULUTH         CLOUDY    40  31  70 SE9       30.01S
ELY            CLOUDY    39  32  75 S10       29.98S
HIBBING        MOSUNNY   54  35  48 S12G21    29.94F
EVELETH        PTSUNNY   50  34  53 S14G20    29.97F
DULUTH HARBOR  CLOUDY    34  32  93 CALM      30.05S
TWO HARBORS    CLOUDY    37  28  70 E6        30.01S
SILVER BAY     CLOUDY    34  32  93 NE5       30.01F WCI  30
GRAND MARAIS     N/A     35  31  85 NE10      30.07F WCI  27
G MARAIS ARPRT CLOUDY    30  27  86 SE5       30.03F WCI  25
$$
MNZ029>031-032-039>041-046>048-054>057-064-192200-
   West Central Minnesota

CITY           SKY/WX    TMP DP  RH WIND       PRES   REMARKS
FERGUS FALLS   MOSUNNY   66  25  20 W21       29.90R
WHEATON        MOSUNNY   72  36  26 SW14G21   29.96S
MORRIS         MOSUNNY   70  32  24 W12G20    29.94F
ALEXANDRIA     MOSUNNY   66  33  29 W14G21    29.95S
ELBOW LAKE     FAIR      68  32  25 W13G22    29.95S
WADENA         MOSUNNY   64  36  34 W17       29.92S
GLENWOOD       PTSUNNY   66  32  28 SW12G18   29.97S
APPLETON       PTSUNNY   68  27  21 SW7       29.96F
BENSON         PTSUNNY   66  37  34 W10       29.97F
ORTONVILLE     MOSUNNY   68  27  21 W12       29.96S
MADISON        PTSUNNY   70  30  23 W7        29.97F
WILLMAR        FAIR      59  46  63 W7        30.00S
$$
MNZ033>034-036-042>043-049>051-058-059-192200-
   Central Minnesota

CITY           SKY/WX    TMP DP  RH WIND       PRES   REMARKS
ST CLOUD       CLOUDY    59  47  64 CALM      29.98R
SAUK CENTRE    FAIR      62  44  51 SW12      29.97S
PAYNESVILLE    CLOUDY    58  47  65 SW5       29.98S
AITKIN         MOSUNNY   61  41  48 S15       29.94S
PINE RIVER     MOSUNNY   66  39  37 SW13G18   29.94S
BRAINERD       MOSUNNY   66  44  45 S15G23    29.94F
STAPLES        MOSUNNY   66  30  26 W12       29.93S
LONG PRAIRIE   FAIR      63  41  45 SW10      29.95F
LITTLE FALLS   PTSUNNY   59  45  58 S9        29.96F
LITCHFIELD     CLOUDY    61  46  59 W7        29.98F
BUFFALO        CLOUDY    65  47  52 W6        29.99S
MAPLE LAKE     CLOUDY    62  49  61 W3        29.99S
$$
MNZ037-044-045-052-053-192200-
   East Central Minnesota

CITY           SKY/WX    TMP DP  RH WIND       PRES   REMARKS
PRINCETON      LGT RAIN  57  46  67 CALM      29.98S
MORA           CLOUDY    45  37  76 CALM      30.01S
CAMBRIDGE      DRIZZLE   59  43  55 SE8       29.97S
RUSH CITY      CLOUDY    51  37  60 S8        30.00F
MOOSE LAKE     CLOUDY    50  36  57 S12       29.99S
HINCKLEY       MOCLDY    46  37  71 CALM      30.01S
CLOQUET        CLOUDY    46  32  57 SE5       30.00S
MCGREGOR       PTSUNNY   55  41  58 S15G23    29.97F
$$
MNZ071>073-080-081-089-090-097-098-192200-
   Southwest Minnesota

CITY           SKY/WX    TMP DP  RH WIND       PRES   REMARKS
MONTEVIDEO     LGT RAIN  59  45  58 CALM      29.99S
GRANITE FALLS  CLOUDY    61  44  53 NW8       30.00S
CANBY          CLOUDY    62  37  40 N3        29.98F
MARSHALL       CLOUDY    64  39  39 N10       29.98S
REDWOOD FALLS  CLOUDY    66  47  50 NW9G18    29.96F
OLIVIA         CLOUDY    59  46  63 NW8       29.98R
PIPESTONE      CLOUDY    64  34  32 N8G16     30.00R
WINDOM         MOSUNNY   73  45  35 SW17G25   29.97S
WORTHINGTON    MOSUNNY   72  45  37 SW13G18   30.00S
JACKSON        PTSUNNY   73  43  33 SW15G25   29.98S
TRACY          PTSUNNY   67  48  49 N10       29.99R
SLAYTON        PTSUNNY   68  42  38 NW10      29.99R
$$
MNZ065>067-074>077-082>085-091>093-192200-
   South Central Minnesota

CITY           SKY/WX    TMP DP  RH WIND       PRES   REMARKS
MANKATO        CLOUDY    70  45  40 SW9       29.97F
NEW ULM        CLOUDY    72  48  43 W14       29.96S
ST JAMES       PTSUNNY   73  45  35 SW16G23   29.97S
FAIRMONT       CLOUDY    73  45  35 SW18      29.99S
GLENCOE        CLOUDY    66  48  51 NW9       29.97S
FARIBAULT      CLOUDY    70  39  32 SE20      30.00F
OWATONNA       PTSUNNY   70  45  40 S18G25    30.00F
WASECA         CLOUDY    72  50  46 S16       30.00F
ALBERT LEA     PTSUNNY   72  43  35 S12G28    30.01F
$$
MNZ078>079-086>088-094>096-192200-
   Southeast Minnesota

CITY           SKY/WX    TMP DP  RH WIND       PRES   REMARKS
ROCHESTER      CLOUDY    66  42  41 S18       30.06F
RED WING       CLOUDY    64  39  39 S15G22    30.02F
STANTON        CLOUDY    66  44  43 S18G30    29.99S
DODGE CENTER   PTSUNNY   70  37  30 S23G30    30.04F
WINONA           N/A    N/A N/A N/A MISG        N/A
AUSTIN         PTSUNNY   72  39  30 S20G29    30.04F
PRESTON        CLOUDY    67  40  36 S23       30.08F
$$
ABBREVIATIONS USED IN REMARKS
   TC - TEMPERATURES IN CELSIUS
  WCI - WIND CHILL INDEX
   HX - HEAT INDEX
  VSB - VISIBILITY
$$


USA.gov is the U.S. government's official web portal to all federal, state and local government web resources and services.